PRM269 KMEM-KLIT

Flight info

Callsign PRM269
Flight time 0h 29m
Altitude 16000
Route CHLDR5 ANSWA DCT
Aircraft A333/H-SDE3GHIJ2J3J5M1RVWXY/LB2D1

Departure

Time 2026-04-20 02:53
Airport Memphis International Airport (KMEM)

Arrival

Time 2026-04-20 03:22
Airport Bill & Hillary Clinton National Airport/Adams Field (KLIT)
Time Latitude Longitude Altitude Speed Heading
2026-04-20 01:50 35.03246 -89.96612 308 ft 0 kts 23°
2026-04-20 02:38 35.03245 -89.96612 308 ft 1 kts 23°
2026-04-20 02:38 35.03222 -89.96625 309 ft 4 kts 23°
2026-04-20 02:38 35.03197 -89.96638 306 ft 4 kts 22°
2026-04-20 02:39 35.03180 -89.96646 306 ft 2 kts 353°
2026-04-20 02:39 35.03170 -89.96640 305 ft 2 kts 288°
2026-04-20 02:39 35.03167 -89.96627 306 ft 2 kts 278°
2026-04-20 02:39 35.03166 -89.96614 308 ft 2 kts 273°
2026-04-20 02:40 35.03166 -89.96609 308 ft 0 kts 272°
2026-04-20 02:49 35.03166 -89.96646 308 ft 15 kts 268°
2026-04-20 02:49 35.03167 -89.96808 306 ft 11 kts 281°
2026-04-20 02:49 35.03156 -89.96838 311 ft 8 kts 222°
2026-04-20 02:49 35.03050 -89.96855 308 ft 25 kts 181°
2026-04-20 02:50 35.02868 -89.96855 304 ft 13 kts 202°
2026-04-20 02:50 35.02877 -89.96923 303 ft 14 kts 303°
2026-04-20 02:50 35.02938 -89.97043 304 ft 15 kts 270°
2026-04-20 02:50 35.02885 -89.97070 305 ft 13 kts 166°
2026-04-20 02:51 35.02736 -89.97027 302 ft 30 kts 173°
2026-04-20 02:51 35.02507 -89.97020 302 ft 24 kts 179°
2026-04-20 02:51 35.02423 -89.97120 301 ft 13 kts 266°
2026-04-20 02:51 35.02451 -89.97235 301 ft 13 kts 328°
2026-04-20 02:52 35.02492 -89.97246 300 ft 0 kts 357°
2026-04-20 02:52 35.02545 -89.97249 301 ft 37 kts 357°
2026-04-20 02:52 35.03097 -89.97254 306 ft 121 kts 358°
2026-04-20 02:52 35.04205 -89.97277 368 ft 194 kts 359°
2026-04-20 02:53 35.05678 -89.97278 1072 ft 227 kts
2026-04-20 02:53 35.07304 -89.97285 1903 ft 236 kts 355°
2026-04-20 02:53 35.08809 -89.97941 2802 ft 234 kts 323°
2026-04-20 02:53 35.09987 -89.99343 3558 ft 242 kts 312°
2026-04-20 02:54 35.11091 -90.00884 4489 ft 239 kts 309°
2026-04-20 02:54 35.12219 -90.02346 5522 ft 233 kts 322°
2026-04-20 02:54 35.13427 -90.03574 6692 ft 224 kts 320°
2026-04-20 02:54 35.14368 -90.05020 7909 ft 215 kts 296°
2026-04-20 02:55 35.14540 -90.06819 9011 ft 219 kts 273°
2026-04-20 02:55 35.14518 -90.08679 9907 ft 219 kts 276°
2026-04-20 02:55 35.14559 -90.10532 10791 ft 218 kts 277°
2026-04-20 02:55 35.14609 -90.12380 11624 ft 218 kts 275°
2026-04-20 02:56 35.14463 -90.14242 12427 ft 224 kts 262°
2026-04-20 02:56 35.13930 -90.16049 13231 ft 229 kts 252°
2026-04-20 02:56 35.13243 -90.17816 14032 ft 231 kts 251°
2026-04-20 02:56 35.12532 -90.19572 14735 ft 232 kts 251°
2026-04-20 02:57 35.11825 -90.21320 15409 ft 233 kts 251°
2026-04-20 02:57 35.11104 -90.23111 15991 ft 236 kts 250°
2026-04-20 02:57 35.10369 -90.24906 16258 ft 237 kts 250°
2026-04-20 02:57 35.09606 -90.26772 16311 ft 260 kts 250°
2026-04-20 02:58 35.08757 -90.28861 16307 ft 289 kts 249°
2026-04-20 02:58 35.07817 -90.31154 16301 ft 314 kts 249°
2026-04-20 02:58 35.06812 -90.33584 16296 ft 324 kts 248°
2026-04-20 02:58 35.05787 -90.36045 16287 ft 326 kts 248°
2026-04-20 02:59 35.04773 -90.38482 16285 ft 326 kts 249°
2026-04-20 02:59 35.03746 -90.40953 16289 ft 327 kts 249°
2026-04-20 02:59 35.02716 -90.43437 16288 ft 328 kts 249°
2026-04-20 02:59 35.01688 -90.45917 16289 ft 328 kts 249°
2026-04-20 03:00 35.00657 -90.48402 16288 ft 328 kts 249°
2026-04-20 03:00 34.99627 -90.50883 16290 ft 328 kts 249°
2026-04-20 03:00 34.98598 -90.53362 16284 ft 328 kts 249°
2026-04-20 03:00 34.97565 -90.55850 16296 ft 329 kts 249°
2026-04-20 03:01 34.96533 -90.58334 16297 ft 329 kts 249°
2026-04-20 03:01 34.95510 -90.60793 16295 ft 329 kts 249°
2026-04-20 03:01 34.94474 -90.63282 16303 ft 329 kts 249°
2026-04-20 03:01 34.93438 -90.65768 16305 ft 329 kts 249°
2026-04-20 03:02 34.92399 -90.68260 16306 ft 329 kts 249°
2026-04-20 03:02 34.91361 -90.70747 16306 ft 329 kts 249°
2026-04-20 03:02 34.90478 -90.73295 16307 ft 324 kts 258°
2026-04-20 03:02 34.89962 -90.75951 16306 ft 321 kts 263°
2026-04-20 03:03 34.89550 -90.78627 16306 ft 322 kts 264°
2026-04-20 03:03 34.89152 -90.81309 16307 ft 322 kts 264°
2026-04-20 03:03 34.88751 -90.83992 16307 ft 322 kts 264°
2026-04-20 03:03 34.88352 -90.86637 16307 ft 322 kts 264°
2026-04-20 03:04 34.87945 -90.89321 16307 ft 322 kts 264°
2026-04-20 03:04 34.87535 -90.92006 16308 ft 322 kts 264°
2026-04-20 03:04 34.87124 -90.94691 16190 ft 323 kts 264°
2026-04-20 03:04 34.86711 -90.97385 15657 ft 324 kts 264°
2026-04-20 03:05 34.86299 -91.00046 15407 ft 315 kts 264°
2026-04-20 03:05 34.85900 -91.02618 15235 ft 304 kts 264°
2026-04-20 03:05 34.85514 -91.05101 15067 ft 293 kts 264°
2026-04-20 03:05 34.85142 -91.07499 14904 ft 283 kts 264°
2026-04-20 03:06 34.84788 -91.09785 14772 ft 274 kts 264°
2026-04-20 03:06 34.84440 -91.12024 14634 ft 265 kts 264°
2026-04-20 03:06 34.84104 -91.14190 14501 ft 256 kts 264°
2026-04-20 03:06 34.83779 -91.16283 14358 ft 248 kts 264°
2026-04-20 03:07 34.83464 -91.18310 14232 ft 240 kts 264°
2026-04-20 03:07 34.83158 -91.20282 14039 ft 235 kts 265°
2026-04-20 03:07 34.82857 -91.22226 13764 ft 233 kts 264°
2026-04-20 03:07 34.82558 -91.24156 13479 ft 232 kts 264°
2026-04-20 03:08 34.82259 -91.26076 13194 ft 231 kts 264°
2026-04-20 03:08 34.81960 -91.27994 12898 ft 230 kts 264°
2026-04-20 03:08 34.81666 -91.29880 12611 ft 230 kts 264°
2026-04-20 03:08 34.81367 -91.31787 12326 ft 229 kts 264°
2026-04-20 03:09 34.81069 -91.33691 12042 ft 228 kts 264°
2026-04-20 03:09 34.80771 -91.35586 11772 ft 228 kts 264°
2026-04-20 03:09 34.80474 -91.37477 11507 ft 227 kts 264°
2026-04-20 03:09 34.80177 -91.39367 11220 ft 227 kts 263°
2026-04-20 03:10 34.79881 -91.41248 10950 ft 227 kts 263°
2026-04-20 03:10 34.79584 -91.43127 10684 ft 226 kts 263°
2026-04-20 03:10 34.79292 -91.44979 10428 ft 225 kts 263°
2026-04-20 03:10 34.78997 -91.46848 10167 ft 225 kts 263°
2026-04-20 03:11 34.78702 -91.48713 9876 ft 225 kts 263°
2026-04-20 03:11 34.78406 -91.50582 9556 ft 225 kts 263°
2026-04-20 03:11 34.78109 -91.52456 9258 ft 226 kts 263°
2026-04-20 03:11 34.77811 -91.54335 8954 ft 227 kts 263°
2026-04-20 03:12 34.77512 -91.56217 8667 ft 227 kts 263°
2026-04-20 03:12 34.77212 -91.58103 8390 ft 227 kts 263°
2026-04-20 03:12 34.76916 -91.59959 8120 ft 227 kts 263°
2026-04-20 03:12 34.76616 -91.61841 7850 ft 227 kts 263°
2026-04-20 03:13 34.76316 -91.63723 7578 ft 227 kts 263°
2026-04-20 03:13 34.76016 -91.65606 7309 ft 227 kts 263°
2026-04-20 03:13 34.75715 -91.67486 7045 ft 227 kts 263°
2026-04-20 03:13 34.75414 -91.69366 6785 ft 227 kts 263°
2026-04-20 03:14 34.75113 -91.71249 6508 ft 227 kts 263°
2026-04-20 03:14 34.74816 -91.73100 6274 ft 225 kts 262°
2026-04-20 03:14 34.74518 -91.74959 6038 ft 223 kts 262°
2026-04-20 03:14 34.74316 -91.76816 5780 ft 220 kts 272°
2026-04-20 03:15 34.74547 -91.78632 5531 ft 217 kts 290°
2026-04-20 03:15 34.75115 -91.80317 5283 ft 215 kts 296°
2026-04-20 03:15 34.75753 -91.81957 5025 ft 214 kts 296°
2026-04-20 03:15 34.76397 -91.83588 4770 ft 214 kts 296°
2026-04-20 03:16 34.77034 -91.85215 4530 ft 212 kts 295°
2026-04-20 03:16 34.77657 -91.86814 4278 ft 211 kts 295°
2026-04-20 03:16 34.78282 -91.88425 4050 ft 210 kts 295°
2026-04-20 03:16 34.78904 -91.90034 3819 ft 209 kts 294°
2026-04-20 03:17 34.79522 -91.91636 3563 ft 210 kts 294°
2026-04-20 03:17 34.80143 -91.93249 3273 ft 211 kts 294°
2026-04-20 03:17 34.80766 -91.94871 3019 ft 212 kts 294°
2026-04-20 03:17 34.81389 -91.96491 2777 ft 211 kts 293°
2026-04-20 03:18 34.82012 -91.98112 2518 ft 211 kts 293°
2026-04-20 03:18 34.82631 -91.99730 2279 ft 211 kts 292°
2026-04-20 03:18 34.83135 -92.01371 2029 ft 209 kts 283°
2026-04-20 03:18 34.83377 -92.03103 1814 ft 207 kts 271°
2026-04-20 03:19 34.83309 -92.04846 1788 ft 206 kts 259°
2026-04-20 03:19 34.82940 -92.06522 1783 ft 205 kts 248°
2026-04-20 03:19 34.82285 -92.08053 1783 ft 204 kts 234°
2026-04-20 03:19 34.81377 -92.09373 1784 ft 204 kts 228°
2026-04-20 03:20 34.80431 -92.10654 1789 ft 202 kts 228°
2026-04-20 03:20 34.79513 -92.11916 1810 ft 198 kts 229°
2026-04-20 03:20 34.78610 -92.13165 1791 ft 200 kts 228°
2026-04-20 03:20 34.77692 -92.14427 1557 ft 196 kts 228°
2026-04-20 03:21 34.76818 -92.15623 1291 ft 183 kts 228°
2026-04-20 03:21 34.76003 -92.16738 1036 ft 170 kts 228°
2026-04-20 03:21 34.75257 -92.17761 813 ft 155 kts 228°
2026-04-20 03:21 34.74574 -92.18695 620 ft 142 kts 228°
2026-04-20 03:22 34.74147 -92.19280 479 ft 139 kts 228°
2026-04-20 03:22 34.73490 -92.20138 319 ft 139 kts 226°
2026-04-20 03:22 34.72877 -92.20918 270 ft 103 kts 226°
2026-04-20 03:22 34.72575 -92.21307 270 ft 38 kts 227°
2026-04-20 03:23 34.72429 -92.21576 270 ft 24 kts 251°
2026-04-20 03:23 34.72451 -92.21695 270 ft 10 kts 352°
2026-04-20 03:23 34.72510 -92.21651 271 ft 11 kts 40°
2026-04-20 03:23 34.72568 -92.21581 271 ft 13 kts 46°
2026-04-20 03:24 34.72612 -92.21523 271 ft 16 kts 45°
2026-04-20 03:24 34.72700 -92.21411 271 ft 21 kts 46°
2026-04-20 03:24 34.72803 -92.21305 271 ft 14 kts
2026-04-20 03:24 34.72847 -92.21371 271 ft 7 kts 303°
2026-04-20 03:25 34.72893 -92.21456 272 ft 18 kts 301°
2026-04-20 03:25 34.72959 -92.21636 271 ft 27 kts 292°
2026-04-20 03:25 34.73012 -92.21772 271 ft 16 kts 304°
2026-04-20 03:25 34.73117 -92.21788 271 ft 16 kts 347°
2026-04-20 03:26 34.73193 -92.21919 271 ft 25 kts 292°
2026-04-20 03:26 34.73268 -92.22152 271 ft 30 kts 291°
2026-04-20 03:26 34.73387 -92.22163 275 ft 25 kts 46°
2026-04-20 03:26 34.73499 -92.22000 271 ft 20 kts 78°
2026-04-20 03:27 34.73443 -92.21898 271 ft 10 kts 137°
2026-04-20 03:27 34.73401 -92.21839 271 ft 8 kts 130°
2026-04-20 03:27 34.73390 -92.21820 271 ft 0 kts 122°